Weather History for Glens Falls, NY

Change the Weather History Date:

Wednesday, February 26, 2014

  Actual Average Record
Temperature  
Mean Temperature 9 °F 24 °F  
Max Temperature 21 °F 36 °F 61 °F (2002)
Min Temperature -4 °F 13 °F -16 °F (2003)
Degree Days  
Heating Degree Days 56 41  
Month to date heating degree days 1202 1144  
Since 1 July heating degree days 5651 5540  
Cooling Degree Days 0 0  
Month to date cooling degree days 0 0  
Year to date cooling degree days 0 0  
Moisture  
Dew Point 0 °F    
Average Humidity 58    
Maximum Humidity 83    
Minimum Humidity 33    
Precipitation  
Precipitation T in 0.08 in 1.11 in (1979)
Month to date precipitation 2.60 1.92  
Year to date precipitation 4.53 4.78  
Sea Level Pressure  
Sea Level Pressure 29.87 in    
Wind  
Wind Speed 8 mph (SW)    
Max Wind Speed 22 mph    
Max Gust Speed 32 mph    
Visibility 9 miles    
Events Snow    
T = Trace of Precipitation, MM = Missing Value Source: NWS Daily Summary

Daily Weather History Graph

Daily Weather History Graph

Search for Another Location

Airport:

Trip Planner

Search our weather history database for the weather conditions in past years. The results will help you decide how hot, cold, wet, or windy it might be!

Date:

Astronomy

Feb. 26, 2014 Rise Set
Actual Time 6:35 AM EST 5:39 PM EST
Civil Twilight 6:06 AM EST 6:08 PM EST
Nautical Twilight 5:33 AM EST 6:41 PM EST
Astronomical Twilight 5:00 AM EST 7:14 PM EST
Moon 4:23 AM EST (2/26) 2:47 PM EST (2/26)
Length of Visible Light 12h 01m
Length of Day
11h 03m
Waning Crescent, 10% of the Moon is Illuminated
Feb 26
Waning Crescent
Mar 1
New
Mar 8
First Quarter
Mar 16
Full
Mar 23
Last Quarter

Hourly Weather History & Observations

Time (EST) Temp. Windchill Dew Point Humidity Pressure Visibility Wind Dir Wind Speed Gust Speed Precip Events Conditions
12:53 AM 12.0 °F 2.7 °F 5.0 °F 73% 29.93 in 10.0 mi SSE 5.8 mph - N/A   Clear
1:53 AM 10.0 °F -0.9 °F 3.9 °F 76% 29.91 in 10.0 mi South 6.9 mph - N/A   Clear
2:53 AM 12.9 °F 2.6 °F 6.1 °F 74% 29.90 in 10.0 mi SW 6.9 mph - N/A   Overcast
3:53 AM 12.9 °F 0.7 °F 5.0 °F 71% 29.88 in 10.0 mi SSW 9.2 mph - N/A   Mostly Cloudy
4:53 AM 9.0 °F 2.4 °F 5.0 °F 84% 29.87 in 10.0 mi SW 3.5 mph - N/A   Clear
5:53 AM 6.1 °F - 1.0 °F 80% 29.87 in 10.0 mi Calm Calm - N/A   Scattered Clouds
6:42 AM 10.9 °F 0.2 °F 5.0 °F 77% 29.80 in 7.0 mi SSW 6.9 mph - N/A   Mostly Cloudy
6:53 AM 9.0 °F 2.4 °F 5.0 °F 84% 29.84 in 9.0 mi SSW 3.5 mph - N/A   Mostly Cloudy
7:53 AM 14.0 °F 2.0 °F 7.0 °F 74% 29.84 in 10.0 mi SSW 9.2 mph - 0.00 in   Partly Cloudy
8:53 AM 17.1 °F 3.6 °F 8.1 °F 68% 29.84 in 10.0 mi South 12.7 mph - N/A   Clear
9:53 AM 19.9 °F 7.3 °F 5.0 °F 52% 29.84 in 6.0 mi West 12.7 mph 21.9 mph 0.00 in Snow Light Snow
10:25 AM 19.0 °F 4.5 °F 7.0 °F 59% 29.82 in 1.5 mi West 16.1 mph 31.1 mph 0.00 in Snow Light Snow
10:34 AM 19.0 °F 4.5 °F 6.1 °F 57% 29.83 in 2.5 mi WNW 16.1 mph 27.6 mph 0.00 in Snow Light Snow
10:41 AM 19.0 °F 5.6 °F 1.9 °F 47% 29.83 in 9.0 mi West 13.8 mph 24.2 mph 0.00 in   Partly Cloudy
10:53 AM 19.0 °F 5.0 °F 1.0 °F 46% 29.87 in 10.0 mi West 15.0 mph 26.5 mph 0.00 in   Scattered Clouds
11:53 AM 19.9 °F 4.8 °F 1.0 °F 44% 29.87 in 10.0 mi WSW 18.4 mph 25.3 mph N/A   Mostly Cloudy
12:53 PM 19.0 °F 4.0 °F -0.9 °F 42% 29.87 in 10.0 mi WSW 17.3 mph 28.8 mph 0.00 in   Mostly Cloudy
1:53 PM 19.0 °F 4.5 °F -2.0 °F 40% 29.86 in 10.0 mi WSW 16.1 mph 26.5 mph N/A   Mostly Cloudy
2:53 PM 19.0 °F 6.1 °F -4.0 °F 36% 29.87 in 10.0 mi WSW 12.7 mph 21.9 mph N/A   Overcast
3:53 PM 18.0 °F 3.6 °F -7.1 °F 33% 29.88 in 10.0 mi WNW 15.0 mph 19.6 mph N/A   Mostly Cloudy
4:53 PM 16.0 °F 4.4 °F -9.0 °F 32% 29.89 in 10.0 mi West 9.2 mph 19.6 mph N/A   Partly Cloudy
5:53 PM 15.1 °F 7.7 °F -7.1 °F 37% 29.91 in 10.0 mi WSW 4.6 mph - N/A   Partly Cloudy
6:53 PM 9.0 °F - -7.1 °F 48% 29.91 in 10.0 mi Calm Calm - N/A   Clear
7:53 PM 5.0 °F -4.1 °F -7.1 °F 58% 29.91 in 10.0 mi SW 4.6 mph - N/A   Clear
8:53 PM 3.0 °F -4.4 °F -7.1 °F 63% 29.91 in 10.0 mi SSW 3.5 mph - N/A   Clear
9:53 PM -2.0 °F -10.1 °F -9.9 °F 69% 29.91 in 10.0 mi WSW 3.5 mph - N/A   Clear
10:53 PM -2.0 °F - -9.9 °F 69% 29.89 in 10.0 mi Calm Calm - N/A   Clear
11:53 PM -0.0 °F - -9.0 °F 66% 29.88 in 10.0 mi Calm Calm - N/A   Clear